Location: Fours
(44.3167°N, 6.7000°E)
Time: 02:02:13
(UTC+00:00)

MOS 1-B - Pass Details

Date: 16 October 2021
Orbit: 905 x 913 km, 99.4° (Epoch: 02 December)

Event Time Altitude Azimuth Distance (km) Brightness Sun altitude
Rises 17:13:29 0° 161° (SSE) 3,530 7.3 -5.5°
Reaches altitude 10° 17:15:53 10° 161° (SSE) 2,591 6.6 -5.9°
Maximum altitude 17:21:41 86° 74° (ENE) 919 4.4 -6.9°
Drops below altitude 10° 17:27:30 10° 346° (NNW) 2,603 6.9 -8.0°
Sets 17:29:55 0° 346° (NNW) 3,547 7.6 -8.4°
